Location: Stoke Bliss
(52.2667°N, 2.5167°W)
Time: 21:30:01
(UTC+00:00)

Cosmos 1536 - Pass Details

Date: 03 March 2021
Orbit: 541 x 557 km, 82.5° (Epoch: 15 April)

Event Time Altitude Azimuth Distance (km) Brightness Sun altitude
Exits shadow 19:45:54 22° 44° (NE) 1,245 4.3 -17.9°
Drops below altitude 10° 19:47:38 10° 27° (NNE) 1,824 5.3 -18.2°
Sets 19:49:56 0° 18° (NNE) 2,720 6.3 -18.5°
